| time (UTC) | temp F | wind direction | speed knots | gust knots | rain 1hr in | rain 24hr in | rain mn in | humidity % | barometer mb |
| 20260509024226 | 75 | 90 | 2.6 | 7.8 | 0.00 | 0.00 | 0.00 | 63 | 1017.8 |
| 20260509021226 | 75 | 110 | 3.5 | 6.1 | 0.00 | 0.00 | 0.00 | 63 | 1018.2 |
| 20260509014226 | 74 | 97 | 2.6 | 5.2 | 0.00 | 0.00 | 0.00 | 64 | 1018.5 |
| 20260509011226 | 72 | 146 | 1.7 | 4.3 | 0.00 | 0.00 | 0.00 | 64 | 1018.9 |
| 20260509004226 | 71 | 171 | 1.7 | 5.2 | 0.00 | 0.00 | 0.00 | 65 | 1018.9 |
| 20260509001226 | 69 | 155 | 1.7 | 4.3 | 0.00 | 0.00 | 0.00 | 66 | 1019.0 |
| 20260508234226 | 67 | 162 | 2.6 | 5.2 | 0.00 | 0.00 | 0.00 | 65 | 1019.2 |
| 20260508231226 | 65 | 178 | 3.5 | 8.7 | 0.00 | 0.00 | 0.00 | 66 | 1019.3 |
| 20260508224226 | 63 | 172 | 2.6 | 7.0 | 0.00 | 0.00 | 0.00 | 67 | 1019.2 |
| 20260508221226 | 61 | 173 | 2.6 | 5.2 | 0.00 | 0.00 | 0.00 | 68 | 1018.6 |
| 20260508214226 | 57 | 176 | 1.7 | 3.5 | 0.00 | 0.00 | 0.00 | 70 | 1018.4 |
| 20260508211226 | 55 | 177 | 1.7 | 4.3 | 0.00 | 0.00 | 0.00 | 71 | 1017.9 |
| 20260508204226 | 55 | 188 | 1.7 | 5.2 | 0.00 | 0.00 | 0.00 | 71 | 1017.6 |
| 20260508201226 | 55 | 174 | 0.9 | 3.5 | 0.00 | 0.00 | 0.00 | 71 | 1017.2 |
| 20260508194226 | 55 | 148 | 1.7 | 3.5 | 0.00 | 0.00 | 0.00 | 71 | 1016.7 |
| 20260508191226 | 55 | 172 | 0.9 | 2.6 | 0.00 | 0.00 | 0.00 | 69 | 1016.5 |
| 20260508184226 | 56 | 177 | 1.7 | 3.5 | 0.00 | 0.00 | 0.00 | 69 | 1016.5 |
| 20260508181226 | 56 | 173 | 1.7 | 3.5 | 0.00 | 0.00 | 0.00 | 69 | 1016.2 |
| 20260508174226 | 57 | 177 | 0.9 | 3.5 | 0.00 | 0.00 | 0.00 | 69 | 1016.3 |
| 20260508171226 | 57 | 178 | 0.9 | 3.5 | 0.00 | 0.00 | 0.00 | 71 | 1016.2 |
| 20260508164226 | 57 | 195 | 0.9 | 3.5 | 0.00 | 0.00 | 0.00 | 73 | 1016.4 |
| 20260508161226 | 57 | 166 | 0.9 | 2.6 | 0.00 | 0.00 | 0.00 | 74 | 1016.3 |
| 20260508154226 | 58 | 176 | 0.9 | 3.5 | 0.00 | 0.00 | 0.00 | 77 | 1016.4 |
| 20260508151226 | 58 | 165 | 0.9 | 2.6 | 0.00 | 0.00 | 0.00 | 82 | 1016.5 |
| 20260508144226 | 58 | 141 | 0.9 | 0.9 | 0.00 | 0.00 | 0.00 | 86 | 1016.7 |
| 20260508141226 | 59 | 117 | 0.9 | 1.7 | 0.00 | 0.00 | 0.00 | 86 | 1016.7 |
| 20260508134226 | 58 | 128 | 0.9 | 0.9 | 0.00 | 0.00 | 0.00 | 86 | 1016.8 |
| 20260508131226 | 59 | 90 | 0.9 | 0.9 | 0.00 | 0.00 | 0.00 | 85 | 1016.9 |
| 20260508124226 | 59 | 107 | 0.9 | 0.9 | 0.00 | 0.00 | 0.00 | 84 | 1017.1 |
| 20260508121226 | 60 | 120 | 0.9 | 0.9 | 0.00 | 0.00 | 0.00 | 83 | 1017.3 |
| 20260508114226 | 60 | 90 | 0.9 | 1.7 | 0.00 | 0.00 | 0.00 | 82 | 1017.2 |
| 20260508111226 | 61 | 90 | 0.0 | 0.9 | 0.00 | 0.00 | 0.00 | 81 | 1017.1 |
| 20260508104226 | 61 | 135 | 0.0 | 0.9 | 0.00 | 0.00 | 0.00 | 79 | 1016.7 |
| 20260508101226 | 62 | 104 | 0.9 | 1.7 | 0.00 | 0.00 | 0.00 | 78 | 1016.5 |
| 20260508094226 | 62 | 90 | 0.9 | 1.7 | 0.00 | 0.00 | 0.00 | 77 | 1016.4 |
| 20260508091226 | 63 | 90 | 0.9 | 0.9 | 0.00 | 0.00 | 0.00 | 76 | 1016.1 |
| 20260508084226 | 64 | 115 | 0.9 | 1.7 | 0.00 | 0.00 | 0.00 | 75 | 1015.9 |
| 20260508081226 | 66 | 104 | 0.9 | 2.6 | 0.00 | 0.00 | 0.00 | 73 | 1015.5 |
| 20260508074226 | 67 | 100 | 0.9 | 2.6 | 0.00 | 0.00 | 0.00 | 70 | 1015.3 |
| 20260508071226 | 68 | 104 | 0.9 | 2.6 | 0.00 | 0.00 | 0.00 | 68 | 1015.1 |
| 20260508064226 | 70 | 107 | 1.7 | 3.5 | 0.00 | 0.00 | 0.00 | 64 | 1014.9 |
| 20260508061226 | 71 | 125 | 0.9 | 2.6 | 0.00 | 0.00 | 0.00 | 60 | 1014.6 |
| 20260508054226 | 71 | 120 | 0.9 | 3.5 | 0.00 | 0.00 | 0.00 | 58 | 1014.5 |
| 20260508051226 | 71 | 113 | 2.6 | 7.8 | 0.00 | 0.00 | 0.00 | 58 | 1014.5 |
| 20260508044226 | 71 | 135 | 0.9 | 4.3 | 0.00 | 0.00 | 0.00 | 58 | 1014.5 |
| 20260508041226 | 71 | 144 | 2.6 | 4.3 | 0.00 | 0.00 | 0.00 | 58 | 1015.0 |
| 20260508034226 | 71 | 155 | 2.6 | 5.2 | 0.00 | 0.00 | 0.00 | 57 | 1014.9 |
| 20260508031226 | 70 | 170 | 2.6 | 5.2 | 0.00 | 0.00 | 0.00 | 58 | 1015.0 |